BOX768 EHAM-LSZH

Flight info

Callsign BOX768
Flight time 1h 18m
Altitude 35000
Route EDUPO Z739 MISGO DCT ASBON DCT TUSUK DCT LAMGO/N0457F270 T721 SUL/N0444F250 T721 RILAX
Aircraft B77L/H-SDE1E2E3FGHIJ2J3J4J5M1RWXY/LB1D1

Departure

Time 2026-05-05 18:25
Airport Amsterdam Airport Schiphol (EHAM)

Arrival

Time 2026-05-05 19:44
Airport Zürich Airport (LSZH)
Time Latitude Longitude Altitude Speed Heading
2026-05-05 17:50 52.29522 4.76203 3 ft 0 kts 147°
2026-05-05 18:09 52.29523 4.76203 3 ft 1 kts 147°
2026-05-05 18:09 52.29534 4.76190 3 ft 3 kts 149°
2026-05-05 18:09 52.29552 4.76175 6 ft 3 kts 156°
2026-05-05 18:09 52.29570 4.76163 5 ft 3 kts 166°
2026-05-05 18:10 52.29589 4.76158 4 ft 3 kts 184°
2026-05-05 18:10 52.29604 4.76162 4 ft 3 kts 214°
2026-05-05 18:10 52.29612 4.76172 5 ft 1 kts 238°
2026-05-05 18:10 52.29612 4.76173 5 ft 0 kts 238°
2026-05-05 18:13 52.29592 4.76120 5 ft 9 kts 237°
2026-05-05 18:13 52.29558 4.76033 3 ft 10 kts 239°
2026-05-05 18:13 52.29513 4.75899 4 ft 15 kts 246°
2026-05-05 18:13 52.29476 4.75735 3 ft 16 kts 242°
2026-05-05 18:14 52.29436 4.75603 3 ft 11 kts 258°
2026-05-05 18:14 52.29438 4.75583 3 ft 0 kts 282°
2026-05-05 18:17 52.29446 4.75558 3 ft 10 kts 306°
2026-05-05 18:17 52.29557 4.75427 2 ft 23 kts 328°
2026-05-05 18:17 52.29662 4.75319 3 ft 11 kts 328°
2026-05-05 18:17 52.29692 4.75292 3 ft 0 kts 339°
2026-05-05 18:18 52.29693 4.75291 3 ft 1 kts 339°
2026-05-05 18:18 52.29744 4.75276 3 ft 14 kts 351°
2026-05-05 18:18 52.29834 4.75202 3 ft 15 kts 314°
2026-05-05 18:18 52.29917 4.75049 3 ft 19 kts 313°
2026-05-05 18:19 52.30003 4.74895 3 ft 16 kts 311°
2026-05-05 18:19 52.30066 4.74781 4 ft 13 kts 312°
2026-05-05 18:19 52.30124 4.74675 12 ft 13 kts 311°
2026-05-05 18:19 52.30164 4.74601 14 ft 0 kts 311°
2026-05-05 18:20 52.30167 4.74595 14 ft 6 kts 311°
2026-05-05 18:20 52.30222 4.74490 14 ft 13 kts 310°
2026-05-05 18:20 52.30278 4.74388 15 ft 12 kts 312°
2026-05-05 18:20 52.30347 4.74257 3 ft 16 kts 310°
2026-05-05 18:21 52.30368 4.74146 3 ft 9 kts 257°
2026-05-05 18:21 52.30362 4.74121 3 ft 6 kts 248°
2026-05-05 18:21 52.30340 4.74062 3 ft 7 kts 230°
2026-05-05 18:21 52.30296 4.74006 3 ft 9 kts 215°
2026-05-05 18:22 52.30247 4.73949 3 ft 8 kts 216°
2026-05-05 18:22 52.30237 4.73936 3 ft 0 kts 218°
2026-05-05 18:23 52.30200 4.73879 3 ft 9 kts 234°
2026-05-05 18:23 52.30198 4.73786 2 ft 9 kts 297°
2026-05-05 18:23 52.30251 4.73747 1 ft 9 kts 353°
2026-05-05 18:23 52.30290 4.73744 0 ft 0 kts 359°
2026-05-05 18:24 52.30443 4.73755 1 ft 57 kts
2026-05-05 18:24 52.31096 4.73817 3 ft 130 kts
2026-05-05 18:24 52.32209 4.73948 100 ft 181 kts
2026-05-05 18:25 52.33455 4.74071 304 ft 179 kts
2026-05-05 18:25 52.33875 4.74102 354 ft 178 kts
2026-05-05 18:25 52.35847 4.74282 645 ft 173 kts 19°
2026-05-05 18:25 52.36972 4.75353 914 ft 198 kts 32°
2026-05-05 18:26 52.38183 4.76582 1526 ft 216 kts 39°
2026-05-05 18:26 52.39151 4.78523 2069 ft 220 kts 52°
2026-05-05 18:26 52.40118 4.80465 2491 ft 221 kts 47°
2026-05-05 18:26 52.41139 4.82309 3012 ft 222 kts 47°
2026-05-05 18:27 52.42055 4.84373 3638 ft 231 kts 68°
2026-05-05 18:27 52.42372 4.86930 4279 ft 229 kts 83°
2026-05-05 18:27 52.42418 4.89601 4990 ft 241 kts 86°
2026-05-05 18:27 52.42423 4.92410 5636 ft 252 kts 88°
2026-05-05 18:28 52.42300 4.97422 6714 ft 272 kts 106°
2026-05-05 18:28 52.41351 5.00065 7288 ft 272 kts 137°
2026-05-05 18:28 52.39303 5.02516 8205 ft 279 kts 145°
2026-05-05 18:29 52.38224 5.03755 8636 ft 281 kts 145°
2026-05-05 18:29 52.36617 5.05605 9294 ft 283 kts 145°
2026-05-05 18:29 52.35008 5.07458 9949 ft 286 kts 145°
2026-05-05 18:29 52.33379 5.09367 10550 ft 289 kts 141°
2026-05-05 18:30 52.31918 5.11711 11186 ft 300 kts 131°
2026-05-05 18:30 52.30525 5.14361 11871 ft 313 kts 130°
2026-05-05 18:30 52.29100 5.17091 12547 ft 325 kts 131°
2026-05-05 18:30 52.27581 5.19925 13213 ft 339 kts 131°
2026-05-05 18:31 52.25979 5.22853 13837 ft 352 kts 131°
2026-05-05 18:31 52.24313 5.25885 14423 ft 364 kts 131°
2026-05-05 18:31 52.22716 5.29186 14999 ft 375 kts 126°
2026-05-05 18:31 52.21197 5.32725 15615 ft 385 kts 124°
2026-05-05 18:32 52.19694 5.36323 16277 ft 392 kts 124°
2026-05-05 18:32 52.18141 5.40017 16943 ft 399 kts 124°
2026-05-05 18:32 52.16564 5.43713 17596 ft 405 kts 125°
2026-05-05 18:32 52.14935 5.47486 18273 ft 409 kts 125°
2026-05-05 18:33 52.13279 5.51290 18866 ft 413 kts 126°
2026-05-05 18:33 52.11585 5.55163 19478 ft 416 kts 126°
2026-05-05 18:33 52.09925 5.58955 20083 ft 418 kts 127°
2026-05-05 18:33 52.08224 5.62831 20712 ft 419 kts 127°
2026-05-05 18:34 52.06528 5.66691 21352 ft 420 kts 127°
2026-05-05 18:34 52.04747 5.70449 21978 ft 419 kts 132°
2026-05-05 18:34 52.02818 5.74016 22649 ft 418 kts 134°
2026-05-05 18:34 52.00901 5.77476 23315 ft 417 kts 134°
2026-05-05 18:35 51.98984 5.81002 23894 ft 415 kts 133°
2026-05-05 18:35 51.97083 5.84548 24484 ft 413 kts 133°
2026-05-05 18:35 51.95201 5.88062 25081 ft 410 kts 133°
2026-05-05 18:35 51.93337 5.91537 25642 ft 406 kts 133°
2026-05-05 18:36 51.91489 5.94976 26262 ft 402 kts 133°
2026-05-05 18:36 51.89652 5.98389 26744 ft 401 kts 133°
2026-05-05 18:36 51.87844 6.01741 27198 ft 400 kts 134°
2026-05-05 18:36 51.86008 6.05141 27656 ft 399 kts 134°
2026-05-05 18:37 51.84174 6.08522 28111 ft 397 kts 134°
2026-05-05 18:37 51.82349 6.11862 28584 ft 394 kts 134°
2026-05-05 18:37 51.80557 6.15138 29060 ft 392 kts 134°
2026-05-05 18:37 51.78759 6.18422 29490 ft 390 kts 134°
2026-05-05 18:38 51.76967 6.21692 29892 ft 388 kts 134°
2026-05-05 18:38 51.75178 6.24958 30251 ft 385 kts 134°
2026-05-05 18:38 51.73420 6.28169 30606 ft 382 kts 134°
2026-05-05 18:38 51.71657 6.31387 30971 ft 379 kts 134°
2026-05-05 18:39 51.69915 6.34562 31343 ft 375 kts 134°
2026-05-05 18:39 51.68211 6.37668 31688 ft 371 kts 134°
2026-05-05 18:39 51.66512 6.40758 32063 ft 367 kts 135°
2026-05-05 18:39 51.64817 6.43837 32442 ft 362 kts 135°
2026-05-05 18:40 51.63152 6.46855 32756 ft 359 kts 135°
2026-05-05 18:40 51.61489 6.49866 32879 ft 361 kts 135°
2026-05-05 18:40 51.58117 6.55956 33025 ft 365 kts 135°
2026-05-05 18:41 51.56453 6.58961 33249 ft 363 kts 135°
2026-05-05 18:41 51.54763 6.62010 33394 ft 364 kts 135°
2026-05-05 18:41 51.51355 6.68145 33435 ft 371 kts 135°
2026-05-05 18:42 51.49611 6.71273 33232 ft 380 kts 136°
2026-05-05 18:42 51.47725 6.74214 32985 ft 389 kts 142°
2026-05-05 18:42 51.43250 6.79324 32842 ft 400 kts 148°
2026-05-05 18:43 51.38556 6.84357 32847 ft 411 kts 148°
2026-05-05 18:43 51.33746 6.89529 32846 ft 422 kts 148°
2026-05-05 18:44 51.28832 6.94824 32850 ft 433 kts 147°
2026-05-05 18:44 51.23763 7.00281 32842 ft 443 kts 147°
2026-05-05 18:45 51.18601 7.05826 32843 ft 452 kts 147°
2026-05-05 18:45 51.13357 7.11444 32840 ft 459 kts 147°
2026-05-05 18:46 51.08012 7.17152 32829 ft 465 kts 147°
2026-05-05 18:46 51.02613 7.22903 32826 ft 467 kts 147°
2026-05-05 18:47 50.97202 7.28648 32826 ft 468 kts 147°
2026-05-05 18:47 50.91801 7.34366 32828 ft 468 kts 147°
2026-05-05 18:48 50.86387 7.40083 32825 ft 467 kts 147°
2026-05-05 18:48 50.80981 7.45774 32820 ft 466 kts 147°
2026-05-05 18:49 50.75587 7.51437 32822 ft 465 kts 147°
2026-05-05 18:49 50.70135 7.56878 32822 ft 464 kts 152°
2026-05-05 18:50 50.64235 7.61035 32817 ft 464 kts 156°
2026-05-05 18:50 50.58279 7.65083 32810 ft 465 kts 156°
2026-05-05 18:51 50.52376 7.69133 32810 ft 466 kts 156°
2026-05-05 18:51 50.46425 7.73228 32817 ft 466 kts 156°
2026-05-05 18:52 50.40478 7.77313 32817 ft 467 kts 156°
2026-05-05 18:52 50.34519 7.81392 32819 ft 467 kts 156°
2026-05-05 18:53 50.28547 7.85468 32822 ft 468 kts 156°
2026-05-05 18:53 50.22587 7.89524 32828 ft 468 kts 156°
2026-05-05 18:54 50.16630 7.93567 32830 ft 468 kts 156°
2026-05-05 18:54 50.10639 7.97622 32834 ft 469 kts 156°
2026-05-05 18:55 50.04646 8.01668 32844 ft 469 kts 156°
2026-05-05 18:55 49.98642 8.05709 32838 ft 470 kts 156°
2026-05-05 18:56 49.92666 8.09722 32843 ft 470 kts 156°
2026-05-05 18:56 49.86648 8.13751 32838 ft 471 kts 156°
2026-05-05 18:57 49.80620 8.17776 32832 ft 472 kts 156°
2026-05-05 18:57 49.74580 8.21798 32828 ft 472 kts 156°
2026-05-05 18:58 49.68515 8.25826 32824 ft 473 kts 156°
2026-05-05 18:58 49.62450 8.29842 32827 ft 474 kts 156°
2026-05-05 18:59 49.56421 8.33825 32831 ft 474 kts 156°
2026-05-05 18:59 49.50349 8.37825 32831 ft 475 kts 156°
2026-05-05 19:00 49.44261 8.41824 32828 ft 475 kts 156°
2026-05-05 19:00 49.38178 8.45810 32826 ft 475 kts 156°
2026-05-05 19:01 49.32122 8.49766 32832 ft 476 kts 156°
2026-05-05 19:01 49.26020 8.53742 32834 ft 476 kts 157°
2026-05-05 19:02 49.22968 8.55727 32680 ft 479 kts 157°
2026-05-05 19:02 49.19884 8.57731 32131 ft 480 kts 157°
2026-05-05 19:02 49.16816 8.59720 31593 ft 475 kts 157°
2026-05-05 19:02 49.13793 8.61679 31044 ft 469 kts 157°
2026-05-05 19:03 49.10810 8.63608 30527 ft 463 kts 157°
2026-05-05 19:03 49.07853 8.65519 30004 ft 459 kts 157°
2026-05-05 19:03 49.04966 8.67382 29439 ft 455 kts 158°
2026-05-05 19:03 49.02051 8.69261 28844 ft 451 kts 158°
2026-05-05 19:04 48.99169 8.71117 28271 ft 448 kts 158°
2026-05-05 19:04 48.96293 8.72966 27694 ft 445 kts 158°
2026-05-05 19:04 48.93448 8.74792 27151 ft 442 kts 158°
2026-05-05 19:04 48.90587 8.76259 26590 ft 438 kts 168°
2026-05-05 19:05 48.87577 8.76900 26068 ft 435 kts 177°
2026-05-05 19:05 48.84564 8.76884 25538 ft 432 kts 185°
2026-05-05 19:05 48.81608 8.76186 25031 ft 429 kts 190°
2026-05-05 19:05 48.78664 8.75350 24541 ft 426 kts 190°
2026-05-05 19:06 48.75802 8.74536 24191 ft 421 kts 190°
2026-05-05 19:06 48.72945 8.73738 23887 ft 415 kts 190°
2026-05-05 19:06 48.70101 8.72959 23579 ft 412 kts 190°
2026-05-05 19:06 48.67271 8.72196 23268 ft 414 kts 189°
2026-05-05 19:07 48.64422 8.71436 22918 ft 416 kts 189°
2026-05-05 19:07 48.62533 8.70934 22684 ft 415 kts 190°
2026-05-05 19:07 48.58757 8.69932 22228 ft 416 kts 190°
2026-05-05 19:07 48.55884 8.69171 21906 ft 420 kts 190°
2026-05-05 19:08 48.53007 8.68410 21568 ft 422 kts 190°
2026-05-05 19:08 48.50116 8.67645 21230 ft 420 kts 190°
2026-05-05 19:08 48.47236 8.66884 20891 ft 418 kts 190°
2026-05-05 19:08 48.44380 8.66130 20562 ft 416 kts 191°
2026-05-05 19:09 48.41523 8.65376 20229 ft 414 kts 191°
2026-05-05 19:09 48.38690 8.64631 19904 ft 413 kts 191°
2026-05-05 19:09 48.35867 8.63846 19592 ft 411 kts 192°
2026-05-05 19:09 48.33063 8.63001 19272 ft 409 kts 192°
2026-05-05 19:10 48.30307 8.62152 18964 ft 407 kts 193°
2026-05-05 19:10 48.27529 8.61300 18659 ft 406 kts 193°
2026-05-05 19:10 48.24767 8.60462 18354 ft 404 kts 193°
2026-05-05 19:10 48.22011 8.59630 18020 ft 403 kts 192°
2026-05-05 19:11 48.19281 8.58813 17904 ft 395 kts 193°
2026-05-05 19:11 48.16589 8.58009 17851 ft 393 kts 193°
2026-05-05 19:11 48.13895 8.57206 17884 ft 396 kts 193°
2026-05-05 19:11 48.11179 8.56399 17862 ft 399 kts 193°
2026-05-05 19:12 48.08495 8.55603 17859 ft 398 kts 193°
2026-05-05 19:12 48.05772 8.54795 17870 ft 397 kts 193°
2026-05-05 19:12 48.03060 8.53991 17867 ft 397 kts 193°
2026-05-05 19:12 48.01264 8.53459 17878 ft 396 kts 193°
2026-05-05 19:13 47.98562 8.52661 17869 ft 395 kts 192°
2026-05-05 19:13 47.95841 8.52363 17864 ft 395 kts 175°
2026-05-05 19:13 47.93167 8.53385 17884 ft 401 kts 160°
2026-05-05 19:13 47.90778 8.55444 17862 ft 394 kts 145°
2026-05-05 19:14 47.88849 8.57785 17898 ft 389 kts 143°
2026-05-05 19:14 47.86775 8.60373 17853 ft 387 kts 143°
2026-05-05 19:14 47.84727 8.62930 17510 ft 389 kts 143°
2026-05-05 19:14 47.82655 8.65496 17092 ft 385 kts 143°
2026-05-05 19:15 47.80598 8.68020 16696 ft 380 kts 144°
2026-05-05 19:15 47.78564 8.70498 16291 ft 375 kts 144°
2026-05-05 19:15 47.76552 8.72938 15917 ft 370 kts 144°
2026-05-05 19:15 47.74562 8.75341 15532 ft 366 kts 144°
2026-05-05 19:16 47.72593 8.77717 15149 ft 362 kts 144°
2026-05-05 19:16 47.70651 8.80057 14869 ft 355 kts 144°
2026-05-05 19:16 47.68800 8.82287 14874 ft 338 kts 144°
2026-05-05 19:16 47.67008 8.84448 14864 ft 324 kts 145°
2026-05-05 19:17 47.65298 8.86505 14848 ft 309 kts 145°
2026-05-05 19:17 47.63654 8.88480 14867 ft 300 kts 145°
2026-05-05 19:17 47.62106 8.90491 14857 ft 294 kts 134°
2026-05-05 19:17 47.61034 8.93058 14902 ft 295 kts 119°
2026-05-05 19:18 47.60129 8.95808 14888 ft 299 kts 120°
2026-05-05 19:18 47.59189 8.98565 14886 ft 300 kts 121°
2026-05-05 19:18 47.58244 9.01288 14884 ft 302 kts 121°
2026-05-05 19:18 47.57293 9.04069 14877 ft 302 kts 115°
2026-05-05 19:19 47.56703 9.07067 14883 ft 304 kts 102°
2026-05-05 19:19 47.56431 9.10187 14884 ft 306 kts 98°
2026-05-05 19:19 47.56213 9.13325 14876 ft 306 kts 98°
2026-05-05 19:19 47.55974 9.16460 14894 ft 306 kts 99°
2026-05-05 19:20 47.55716 9.19590 14891 ft 306 kts 99°
2026-05-05 19:20 47.55469 9.22674 14873 ft 304 kts 94°
2026-05-05 19:20 47.55808 9.25716 14868 ft 300 kts 62°
2026-05-05 19:20 47.57069 9.28145 14902 ft 302 kts 37°
2026-05-05 19:21 47.58906 9.29671 14881 ft 302 kts 13°
2026-05-05 19:21 47.60957 9.30063 14876 ft 295 kts 350°
2026-05-05 19:21 47.62886 9.29258 14879 ft 285 kts 326°
2026-05-05 19:21 47.64388 9.27437 14881 ft 276 kts 303°
2026-05-05 19:22 47.65270 9.24965 14892 ft 269 kts 282°
2026-05-05 19:22 47.65473 9.22237 14877 ft 267 kts 262°
2026-05-05 19:22 47.65044 9.19608 14873 ft 268 kts 247°
2026-05-05 19:22 47.64124 9.17170 14653 ft 274 kts 227°
2026-05-05 19:23 47.62583 9.15537 14404 ft 270 kts 214°
2026-05-05 19:23 47.61067 9.13928 14184 ft 268 kts 220°
2026-05-05 19:23 47.59605 9.12202 13935 ft 268 kts 220°
2026-05-05 19:23 47.58228 9.10395 13666 ft 261 kts 237°
2026-05-05 19:24 47.57589 9.07933 13394 ft 256 kts 262°
2026-05-05 19:24 47.57500 9.05321 13156 ft 257 kts 270°
2026-05-05 19:24 47.57630 9.02681 12944 ft 258 kts 281°
2026-05-05 19:24 47.58422 9.00287 12910 ft 267 kts 308°
2026-05-05 19:25 47.59916 8.98533 12750 ft 283 kts 330°
2026-05-05 19:25 47.61840 8.97732 12477 ft 292 kts 354°
2026-05-05 19:25 47.63826 8.98138 12210 ft 296 kts 20°
2026-05-05 19:25 47.65542 8.99793 11937 ft 296 kts 48°
2026-05-05 19:26 47.66588 9.02384 11660 ft 292 kts 75°
2026-05-05 19:26 47.67003 9.05268 11411 ft 284 kts 78°
2026-05-05 19:26 47.67243 9.08126 11289 ft 277 kts 84°
2026-05-05 19:26 47.67373 9.10953 11210 ft 272 kts 102°
2026-05-05 19:27 47.66632 9.13492 10822 ft 269 kts 138°
2026-05-05 19:27 47.65095 9.14861 10457 ft 253 kts 178°
2026-05-05 19:27 47.63442 9.14535 10275 ft 234 kts 205°
2026-05-05 19:27 47.62067 9.13310 10053 ft 236 kts 220°
2026-05-05 19:28 47.60821 9.11726 9968 ft 235 kts 223°
2026-05-05 19:28 47.59619 9.10100 10014 ft 234 kts 223°
2026-05-05 19:28 47.58401 9.08437 9956 ft 239 kts 223°
2026-05-05 19:28 47.57177 9.06757 9919 ft 239 kts 223°
2026-05-05 19:29 47.55967 9.05083 9887 ft 237 kts 223°
2026-05-05 19:29 47.54772 9.03427 9886 ft 234 kts 223°
2026-05-05 19:29 47.53607 9.01806 9882 ft 232 kts 223°
2026-05-05 19:29 47.52425 9.00159 9868 ft 236 kts 223°
2026-05-05 19:30 47.51201 8.98451 9554 ft 246 kts 223°
2026-05-05 19:30 47.49812 8.96976 9046 ft 249 kts 202°
2026-05-05 19:30 47.48140 8.96509 8568 ft 241 kts 186°
2026-05-05 19:30 47.46498 8.96414 8037 ft 232 kts 186°
2026-05-05 19:31 47.44991 8.95730 7431 ft 225 kts 217°
2026-05-05 19:31 47.44088 8.93958 7437 ft 220 kts 248°
2026-05-05 19:31 47.43737 8.91701 7489 ft 235 kts 272°
2026-05-05 19:31 47.44134 8.89340 7594 ft 234 kts 278°
2026-05-05 19:32 47.44290 8.86932 7547 ft 239 kts 275°
2026-05-05 19:32 47.44409 8.84489 7389 ft 234 kts 270°
2026-05-05 19:32 47.44726 8.82245 7386 ft 213 kts 281°
2026-05-05 19:32 47.44929 8.80126 7302 ft 208 kts 263°
2026-05-05 19:33 47.44454 8.78095 6753 ft 210 kts 247°
2026-05-05 19:33 47.44258 8.76042 6461 ft 199 kts 275°
2026-05-05 19:33 47.44457 8.74030 6380 ft 201 kts 276°
2026-05-05 19:33 47.44440 8.71973 6656 ft 207 kts 251°
2026-05-05 19:34 47.43681 8.70168 6608 ft 207 kts 225°
2026-05-05 19:34 47.42598 8.68712 6695 ft 215 kts 224°
2026-05-05 19:34 47.41456 8.67170 6533 ft 226 kts 224°
2026-05-05 19:35 47.38469 8.66077 6006 ft 240 kts 164°
2026-05-05 19:35 47.37082 8.67471 6005 ft 248 kts 133°
2026-05-05 19:35 47.36334 8.69782 6003 ft 254 kts 103°
2026-05-05 19:35 47.36145 8.72328 6001 ft 243 kts 95°
2026-05-05 19:36 47.36069 8.74738 5985 ft 235 kts 94°
2026-05-05 19:36 47.36003 8.77123 5979 ft 230 kts 94°
2026-05-05 19:36 47.35939 8.79493 5990 ft 231 kts 94°
2026-05-05 19:36 47.35877 8.81877 5999 ft 234 kts 94°
2026-05-05 19:37 47.35814 8.84282 5997 ft 236 kts 93°
2026-05-05 19:37 47.35749 8.86721 5989 ft 237 kts 93°
2026-05-05 19:37 47.35854 8.89117 5992 ft 232 kts 78°
2026-05-05 19:37 47.36263 8.91326 6007 ft 220 kts 68°
2026-05-05 19:38 47.37156 8.93053 5983 ft 205 kts 29°
2026-05-05 19:38 47.38476 8.93608 6004 ft 201 kts 352°
2026-05-05 19:38 47.39740 8.92916 5900 ft 195 kts 315°
2026-05-05 19:38 47.40588 8.91384 5648 ft 193 kts 300°
2026-05-05 19:39 47.41308 8.89727 5335 ft 190 kts 298°
2026-05-05 19:39 47.42002 8.88107 5061 ft 180 kts 298°
2026-05-05 19:39 47.42661 8.86569 5039 ft 180 kts 298°
2026-05-05 19:39 47.43315 8.84975 4992 ft 180 kts 290°
2026-05-05 19:40 47.43629 8.83208 5010 ft 179 kts 280°
2026-05-05 19:40 47.43872 8.81389 4995 ft 180 kts 277°
2026-05-05 19:40 47.44045 8.79533 4741 ft 182 kts 275°
2026-05-05 19:40 47.44183 8.77741 4466 ft 171 kts 274°
2026-05-05 19:41 47.44304 8.76062 4236 ft 158 kts 274°
2026-05-05 19:41 47.44416 8.74468 4028 ft 156 kts 274°
2026-05-05 19:41 47.44531 8.72854 3798 ft 159 kts 274°
2026-05-05 19:41 47.44647 8.71236 3554 ft 157 kts 274°
2026-05-05 19:42 47.44761 8.69630 3302 ft 157 kts 274°
2026-05-05 19:42 47.44875 8.68049 3087 ft 150 kts 274°
2026-05-05 19:42 47.44964 8.66515 2656 ft 150 kts 272°
2026-05-05 19:42 47.45067 8.65024 2484 ft 142 kts 277°
2026-05-05 19:43 47.45216 8.63577 2290 ft 155 kts 276°
2026-05-05 19:43 47.45307 8.61987 2260 ft 156 kts 274°
2026-05-05 19:43 47.45386 8.60419 2010 ft 155 kts 275°
2026-05-05 19:43 47.45524 8.58841 1729 ft 153 kts 277°
2026-05-05 19:44 47.45645 8.57319 1498 ft 145 kts 275°
2026-05-05 19:44 47.45720 8.56223 1422 ft 39 kts 274°
2026-05-05 19:44 47.45755 8.55763 1413 ft 50 kts 277°
2026-05-05 19:44 47.45782 8.55353 1408 ft 31 kts 276°
2026-05-05 19:45 47.45782 8.55149 1409 ft 14 kts 234°
2026-05-05 19:45 47.45695 8.55165 1407 ft 11 kts 155°
2026-05-05 19:45 47.45688 8.55170 1409 ft 0 kts 155°
2026-05-05 19:47 47.45658 8.55190 1408 ft 8 kts 154°
2026-05-05 19:48 47.45610 8.55224 1411 ft 8 kts 154°
2026-05-05 19:48 47.45544 8.55270 1411 ft 15 kts 155°
2026-05-05 19:48 47.45450 8.55332 1410 ft 13 kts 153°
2026-05-05 19:48 47.45445 8.55425 1416 ft 12 kts 42°
2026-05-05 19:49 47.45439 8.55488 1418 ft 8 kts 158°
2026-05-05 19:49 47.45398 8.55501 1412 ft 11 kts 163°
2026-05-05 19:49 47.45391 8.55505 1411 ft 0 kts 161°
2026-05-05 19:50 47.45387 8.55507 1419 ft 3 kts 161°
2026-05-05 19:50 47.45352 8.55522 1418 ft 13 kts 168°
2026-05-05 19:50 47.45204 8.55532 1408 ft 24 kts 159°
2026-05-05 19:51 47.45045 8.55615 1411 ft 24 kts 155°
2026-05-05 19:51 47.44956 8.55792 1412 ft 21 kts 99°
2026-05-05 19:51 47.44933 8.55922 1413 ft 19 kts 120°
2026-05-05 19:51 47.44781 8.56043 1406 ft 19 kts 154°
2026-05-05 19:52 47.44667 8.56123 1409 ft 19 kts 155°
2026-05-05 19:52 47.44557 8.56197 1408 ft 13 kts 154°
2026-05-05 19:52 47.44502 8.56261 1410 ft 6 kts 105°
2026-05-05 19:52 47.44507 8.56288 1410 ft 3 kts 73°
2026-05-05 19:53 47.44528 8.56371 1412 ft 9 kts 65°
2026-05-05 19:53 47.44537 8.56401 1407 ft 9 kts 66°
2026-05-05 19:53 47.44569 8.56491 1413 ft 10 kts 43°
2026-05-05 19:53 47.44618 8.56493 1405 ft 0 kts 343°
2026-05-05 19:54 47.44638 8.56481 1412 ft 7 kts 337°
2026-05-05 19:54 47.44650 8.56474 1410 ft 0 kts 338°